Weather History for Fort Polk, LA

Change the Weather History Date:

Wednesday, December 4, 2013

  Actual Average (KPOE) Record (KPOE)
Temperature  
Mean Temperature 73 °F -  
Max Temperature 77 °F 61 °F 78 °F (1998)
Min Temperature 69 °F 43 °F 28 °F (2006)
Cooling Degree Days 8    
Growing Degree Days 23 (Base 50)    
Moisture  
Dew Point 67 °F    
Average Humidity 85    
Maximum Humidity 94    
Minimum Humidity 66    
Precipitation  
Precipitation 0.00 in - - ()
Sea Level Pressure  
Sea Level Pressure 29.78 in    
Wind  
Wind Speed 6 mph (South)    
Max Wind Speed 9 mph    
Max Gust Speed 20 mph    
Visibility 7 miles    
Events      
Averages and records for this station are not official NWS values.
T = Trace of Precipitation, MM = Missing Value Source: NWS Daily Summary

Daily Weather History Graph

Daily Weather History Graph

Search for Another Location

Airport:

Trip Planner

Search our weather history database for the weather conditions in past years. The results will help you decide how hot, cold, wet, or windy it might be!

Date:

Astronomy

Dec. 04, 2013 Rise Set
Actual Time 6:57 AM CST 5:09 PM CST
Civil Twilight 6:30 AM CST 5:36 PM CST
Nautical Twilight 6:00 AM CST 6:06 PM CST
Astronomical Twilight 5:30 AM CST 6:35 PM CST
Moon 8:28 AM CST (12/4) 7:17 PM CST (12/4)
Length of Visible Light 11h 05m
Length of Day
10h 12m
Waxing Crescent, 4% of the Moon is Illuminated
Dec 4
Waxing Crescent
Dec 9
First Quarter
Dec 17
Full
Dec 25
Last Quarter
Jan 1
New

Hourly Weather History & Observations

Time (CST) Temp. Dew Point Humidity Pressure Visibility Wind Dir Wind Speed Gust Speed Precip Events Conditions
1:17 AM 69.8 °F 64.4 °F 83% 29.72 in 10.0 mi South 8.1 mph - N/A   Scattered Clouds
1:34 AM 69.8 °F 64.4 °F 83% 29.72 in 10.0 mi Variable 4.6 mph - N/A   Mostly Cloudy
1:56 AM 69.1 °F 64.9 °F 87% 29.72 in 10.0 mi Variable 6.9 mph - N/A   Overcast
2:56 AM 69.1 °F 66.0 °F 90% 29.72 in 10.0 mi Variable 4.6 mph - N/A   Overcast
3:56 AM 69.1 °F 66.0 °F 90% 29.72 in 10.0 mi Variable 3.5 mph - N/A   Overcast
4:38 AM 69.8 °F 66.2 °F 88% 29.73 in 8.0 mi South 4.6 mph - N/A   Overcast
4:56 AM 69.1 °F 66.0 °F 90% 29.73 in 8.0 mi South 4.6 mph - N/A   Overcast
5:56 AM 69.1 °F 66.0 °F 90% 29.74 in 6.0 mi South 8.1 mph - N/A   Overcast
6:32 AM 69.8 °F 66.2 °F 88% 29.76 in 6.0 mi South 6.9 mph - N/A   Overcast
6:47 AM 69.8 °F 66.2 °F 88% 29.77 in 6.0 mi Variable 4.6 mph - N/A   Overcast
6:56 AM 69.1 °F 66.0 °F 90% 29.77 in 6.0 mi South 5.8 mph - N/A   Overcast
7:07 AM 69.8 °F 66.2 °F 88% 29.78 in 5.0 mi South 4.6 mph - N/A   Overcast
7:56 AM 69.1 °F 66.9 °F 93% 29.79 in 4.0 mi South 5.8 mph - N/A   Overcast
8:56 AM 71.1 °F 66.9 °F 87% 29.81 in 5.0 mi Calm Calm - N/A   Mostly Cloudy
9:35 AM 71.6 °F 66.2 °F 83% 29.83 in 5.0 mi Variable 5.8 mph - N/A   Haze
9:56 AM 73.0 °F 66.9 °F 81% 29.83 in 6.0 mi South 8.1 mph 16.1 mph N/A   Haze
10:56 AM 75.9 °F 66.0 °F 71% 29.82 in 7.0 mi South 8.1 mph - N/A   Mostly Cloudy
11:12 AM 75.2 °F 66.2 °F 73% 29.82 in 7.0 mi South 9.2 mph 19.6 mph N/A   Mostly Cloudy
11:56 AM 75.9 °F 66.0 °F 71% 29.79 in 7.0 mi Variable 4.6 mph 16.1 mph N/A   Overcast
12:56 PM 77.0 °F 66.0 °F 69% 29.77 in 8.0 mi Variable 5.8 mph 16.1 mph N/A   Partly Cloudy
1:56 PM 77.0 °F 66.0 °F 69% 29.75 in 8.0 mi Variable 6.9 mph - N/A   Scattered Clouds
2:56 PM 77.0 °F 64.9 °F 66% 29.74 in 9.0 mi Variable 6.9 mph 17.3 mph N/A   Partly Cloudy
3:56 PM 75.9 °F 66.0 °F 71% 29.73 in 8.0 mi Variable 6.9 mph - N/A   Clear
4:56 PM 73.0 °F 66.9 °F 81% 29.74 in 5.0 mi Variable 5.8 mph - N/A   Haze
5:56 PM 71.1 °F 66.0 °F 84% 29.76 in 8.0 mi Calm Calm - N/A   Clear
6:56 PM 69.1 °F 66.0 °F 90% 29.78 in 6.0 mi Calm Calm - N/A   Mostly Cloudy
7:26 PM 69.8 °F 68.0 °F 94% 29.79 in 5.0 mi South 4.6 mph - N/A   Overcast
7:44 PM 71.6 °F 68.0 °F 88% 29.80 in 6.0 mi Variable 5.8 mph - N/A   Scattered Clouds
7:56 PM 71.1 °F 68.0 °F 90% 29.79 in 5.0 mi Variable 6.9 mph - N/A   Scattered Clouds
8:10 PM 71.6 °F 68.0 °F 88% 29.80 in 5.0 mi Variable 5.8 mph - N/A   Mostly Cloudy
8:28 PM 71.6 °F 68.0 °F 88% 29.80 in 5.0 mi South 4.6 mph - N/A   Overcast
8:38 PM 71.6 °F 68.0 °F 88% 29.80 in 5.0 mi Variable 4.6 mph - N/A   Overcast
8:56 PM 71.1 °F 68.0 °F 90% 29.80 in 6.0 mi South 6.9 mph - N/A   Mostly Cloudy
9:20 PM 71.6 °F 68.0 °F 88% 29.82 in 6.0 mi South 4.6 mph - N/A   Mostly Cloudy
9:56 PM 71.1 °F 68.0 °F 90% 29.82 in 7.0 mi Variable 5.8 mph - N/A   Mostly Cloudy
10:56 PM 70.0 °F 68.0 °F 93% 29.83 in 6.0 mi Variable 3.5 mph - N/A   Overcast
11:30 PM 71.6 °F 69.8 °F 94% 29.84 in 6.0 mi South 5.8 mph - N/A   Overcast
11:56 PM 71.1 °F 69.1 °F 93% 29.83 in 7.0 mi South 4.6 mph - N/A   Overcast